Location: Casco Millpond
(44.5581°N, 87.6111°W)
Time: 08:38:24
(UTC+00:00)

ARIANE 5 R/B - Pass Details

Date: 16 January 2026
Orbit: 746 x 793 km, 98.8° (Epoch: 9 February)

Event Time Altitude Azimuth Distance (km) Brightness Sun altitude
Rises 12:46:43 0° 12° (NNE) 3,265 5.6 -6.7°
Reaches altitude 10° 12:49:03 10° 11° (NNE) 2,326 4.9 -6.3°
Maximum altitude 12:54:10 77° 287° (WNW) 789 2.5 -5.4°
Drops below altitude 10° 12:59:11 10° 202° (SSW) 2,280 5.0 -4.6°
Sets 13:01:27 0° 201° (SSW) 3,194 5.8 -4.3°
